Change the Weather History Date:

Thursday, March 20, 2014

  Actual Average Record
Temperature  
Mean Temperature 56 °F -  
Max Temperature 73 °F 67 °F 82 °F (2004)
Min Temperature 41 °F 46 °F 33 °F (2008)
Degree Days  
Heating Degree Days 9    
Growing Degree Days 6 (Base 50)    
Moisture  
Dew Point 38 °F    
Average Humidity 54    
Maximum Humidity 81    
Minimum Humidity 27    
Precipitation  
Precipitation 0.00 in - - ()
Sea Level Pressure  
Sea Level Pressure 30.15 in    
Wind  
Wind Speed 3 mph (NE)    
Max Wind Speed 12 mph    
Max Gust Speed 16 mph    
Visibility 10 miles    
Events      
Averages and records for this station are not official NWS values.
T = Trace of Precipitation, MM = Missing Value Source: NWS Daily Summary

Daily Weather History Graph

Daily Weather History Graph

Search for Another Location

Airport or City:

Trip Planner

Search our weather history database for the weather conditions in past years. The results will help you decide how hot, cold, wet, or windy it might be!

Date:

Astronomy

Mar. 20, 2014 Rise Set
Actual Time 7:22 AM CDT 7:30 PM CDT
Civil Twilight 6:58 AM CDT 7:54 PM CDT
Nautical Twilight 6:30 AM CDT 8:23 PM CDT
Astronomical Twilight 6:01 AM CDT 8:51 PM CDT
Moon 11:35 PM CDT (3/20) 9:43 AM CDT (3/20)
Length of Visible Light 12h 56m
Length of Day
12h 07m
Waning Gibbous, 84% of the Moon is Illuminated
Mar 20
Waning Gibbous
Mar 23
Last Quarter
Mar 30
New
Apr 7
First Quarter
Apr 15
Full

Hourly Weather History & Observations

Time (CDT) Temp. Windchill Dew Point Humidity Pressure Visibility Wind Dir Wind Speed Gust Speed Precip Events Conditions
12:15 AM 48.2 °F - 37.4 °F 66% 30.18 in 10.0 mi Calm Calm - N/A   Clear
12:35 AM 48.2 °F - 37.4 °F 66% 30.18 in 10.0 mi Calm Calm - N/A   Clear
12:55 AM 46.4 °F - 37.4 °F 71% 30.18 in 10.0 mi Calm Calm - N/A   Clear
1:15 AM 44.6 °F - 37.4 °F 76% 30.18 in 10.0 mi Calm Calm - N/A   Clear
1:35 AM 44.6 °F 40.2 °F 37.4 °F 76% 30.17 in 10.0 mi North 8.1 mph - N/A   Clear
1:55 AM 46.4 °F 42.9 °F 37.4 °F 71% 30.17 in 10.0 mi North 6.9 mph - N/A   Clear
2:15 AM 44.6 °F 41.4 °F 37.4 °F 76% 30.17 in 10.0 mi North 5.8 mph - N/A   Clear
2:35 AM 44.6 °F 42.2 °F 37.4 °F 76% 30.17 in 10.0 mi North 4.6 mph - N/A   Clear
2:55 AM 48.2 °F - 37.4 °F 66% 30.17 in 10.0 mi North 4.6 mph - N/A   Clear
3:15 AM 46.4 °F 43.5 °F 37.4 °F 71% 30.17 in 10.0 mi North 5.8 mph - N/A   Clear
3:35 AM 44.6 °F 42.2 °F 35.6 °F 71% 30.17 in 10.0 mi North 4.6 mph - N/A   Clear
3:55 AM 44.6 °F 43.1 °F 35.6 °F 71% 30.17 in 10.0 mi NNW 3.5 mph - N/A   Clear
4:15 AM 44.6 °F - 35.6 °F 71% 30.17 in 10.0 mi Calm Calm - N/A   Clear
4:35 AM 42.8 °F 41.1 °F 35.6 °F 76% 30.18 in 10.0 mi NNW 3.5 mph - N/A   Clear
4:55 AM 42.8 °F - 35.6 °F 76% 30.18 in 10.0 mi Calm Calm - N/A   Clear
5:15 AM 42.8 °F - 35.6 °F 76% 30.18 in 10.0 mi Calm Calm - N/A   Clear
5:35 AM 41.0 °F - 35.6 °F 81% 30.19 in 10.0 mi North - - N/A   Clear
5:55 AM 41.0 °F 38.0 °F 35.6 °F 81% 30.19 in 10.0 mi NNE 4.6 mph - N/A   Clear
6:15 AM 44.6 °F 41.4 °F 35.6 °F 71% 30.20 in 10.0 mi NNE 5.8 mph - N/A   Clear
6:35 AM 46.4 °F 45.2 °F 33.8 °F 62% 30.20 in 10.0 mi NNE 3.5 mph - N/A   Clear
6:55 AM 46.4 °F 44.3 °F 33.8 °F 62% 30.21 in 10.0 mi NNE 4.6 mph - N/A   Clear
7:15 AM 46.4 °F 44.3 °F 33.8 °F 62% 30.21 in 10.0 mi NE 4.6 mph - N/A   Clear
7:35 AM 46.4 °F 44.3 °F 33.8 °F 62% 30.21 in 10.0 mi NE 4.6 mph - N/A   Clear
7:55 AM 46.4 °F 44.3 °F 33.8 °F 62% 30.21 in 10.0 mi NNE 4.6 mph - N/A   Clear
8:15 AM 48.2 °F - 33.8 °F 58% 30.21 in 10.0 mi ENE 3.5 mph - N/A   Clear
8:35 AM 50.0 °F - 35.6 °F 58% 30.21 in 10.0 mi ENE 3.5 mph - N/A   Clear
8:55 AM 51.8 °F - 37.4 °F 58% 30.22 in 10.0 mi ENE 4.6 mph - N/A   Clear
9:15 AM 53.6 °F - 37.4 °F 54% 30.23 in 10.0 mi ENE 5.8 mph - N/A   Clear
9:35 AM 55.4 °F - 37.4 °F 51% 30.23 in 10.0 mi East 9.2 mph - N/A   Clear
9:55 AM 57.2 °F - 37.4 °F 48% 30.23 in 10.0 mi East 6.9 mph - N/A   Clear
10:15 AM 57.2 °F - 37.4 °F 48% 30.23 in 10.0 mi East 11.5 mph 16.1 mph N/A   Clear
10:35 AM 59.0 °F - 39.2 °F 48% 30.23 in 10.0 mi East 9.2 mph - N/A   Clear
10:55 AM 60.8 °F - 39.2 °F 45% 30.24 in 10.0 mi ESE 6.9 mph - N/A   Clear
11:15 AM 60.8 °F - 41.0 °F 48% 30.23 in 10.0 mi East 4.6 mph - N/A   Clear
11:35 AM 62.6 °F - 39.2 °F 42% 30.22 in 10.0 mi ESE 6.9 mph - N/A   Clear
11:55 AM 62.6 °F - 39.2 °F 42% 30.22 in 10.0 mi Calm Calm - N/A   Clear
12:15 PM 64.4 °F - 39.2 °F 40% 30.21 in 10.0 mi SSE 3.5 mph - N/A   Clear
12:35 PM 64.4 °F - 39.2 °F 40% 30.21 in 10.0 mi Calm Calm - N/A   Clear
12:55 PM 66.2 °F - 41.0 °F 40% 30.20 in 10.0 mi SE 3.5 mph - N/A   Clear
1:15 PM 66.2 °F - 39.2 °F 37% 30.18 in 10.0 mi Calm Calm - N/A   Clear
1:35 PM 68.0 °F - 39.2 °F 35% 30.17 in 10.0 mi Calm Calm - N/A   Clear
1:55 PM 69.8 °F - 41.0 °F 35% 30.16 in 10.0 mi North 5.8 mph - N/A   Clear
2:15 PM 69.8 °F - 39.2 °F 33% 30.15 in 10.0 mi ESE 3.5 mph - N/A   Clear
2:35 PM 69.8 °F - 42.8 °F 38% 30.14 in 10.0 mi Calm Calm - N/A   Clear
2:55 PM 71.6 °F - 39.2 °F 31% 30.13 in 10.0 mi NNE 3.5 mph - N/A   Clear
3:15 PM 71.6 °F - 39.2 °F 31% 30.12 in 10.0 mi ENE 3.5 mph - N/A   Clear
3:35 PM 71.6 °F - 37.4 °F 29% 30.12 in 10.0 mi Calm Calm - N/A   Clear
3:55 PM 71.6 °F - 37.4 °F 29% 30.11 in 10.0 mi North 3.5 mph - N/A   Clear
4:15 PM 71.6 °F - 37.4 °F 29% 30.10 in 10.0 mi West 6.9 mph - N/A   Clear
4:35 PM 71.6 °F - 35.6 °F 27% 30.09 in 10.0 mi Calm Calm - N/A   Clear
4:55 PM 71.6 °F - 37.4 °F 29% 30.08 in 10.0 mi NW 4.6 mph - N/A   Clear
5:15 PM 71.6 °F - 37.4 °F 29% 30.07 in 10.0 mi NW 3.5 mph - N/A   Clear
5:35 PM 71.6 °F - 37.4 °F 29% 30.07 in 10.0 mi South 6.9 mph - N/A   Clear
5:55 PM 71.6 °F - 37.4 °F 29% 30.07 in 10.0 mi SW 6.9 mph - N/A   Clear
6:15 PM 71.6 °F - 35.6 °F 27% 30.06 in 10.0 mi SSW 5.8 mph - N/A   Clear
6:35 PM 69.8 °F - 37.4 °F 31% 30.06 in 10.0 mi Calm Calm - N/A   Clear
6:55 PM 69.8 °F - 37.4 °F 31% 30.06 in 10.0 mi SW 3.5 mph - N/A   Clear
7:15 PM 66.2 °F - 39.2 °F 37% 30.06 in 10.0 mi Calm Calm - N/A   Clear
7:35 PM 60.8 °F - 39.2 °F 45% 30.06 in 10.0 mi Calm Calm - N/A   Clear
7:55 PM 57.2 °F - 41.0 °F 55% 30.06 in 10.0 mi Calm Calm - N/A   Clear
8:15 PM 55.4 °F - 41.0 °F 58% 30.05 in 10.0 mi Calm Calm - N/A   Clear
8:35 PM 55.4 °F - 41.0 °F 58% 30.05 in 10.0 mi Calm Calm - N/A   Clear
8:55 PM 53.6 °F - 39.2 °F 58% 30.06 in 10.0 mi Calm Calm - N/A   Clear
9:15 PM 51.8 °F - 39.2 °F 62% 30.06 in 10.0 mi Calm Calm - N/A   Clear
9:35 PM 51.8 °F - 39.2 °F 62% 30.06 in 10.0 mi Calm Calm - N/A   Clear
9:55 PM 51.8 °F - 39.2 °F 62% 30.07 in 10.0 mi Calm Calm - N/A   Clear
10:15 PM 48.2 °F - 39.2 °F 71% 30.07 in 10.0 mi Calm Calm - N/A   Clear
10:35 PM 48.2 °F - 39.2 °F 71% 30.07 in 10.0 mi Calm Calm - N/A   Clear
10:55 PM 48.2 °F - 39.2 °F 71% 30.07 in 10.0 mi Calm Calm - N/A   Clear
11:15 PM 46.4 °F - 39.2 °F 76% 30.07 in 10.0 mi Calm Calm - N/A   Clear
11:35 PM 46.4 °F - 39.2 °F 76% 30.07 in 10.0 mi Calm Calm - N/A   Clear
11:55 PM 46.4 °F - 39.2 °F 76% 30.07 in 10.0 mi Calm Calm - N/A   Clear